カタログに戻る

STARLINK-36480

運用中通信VLEO
NORAD 67336·PAYLOAD·🇺🇸 United States

打ち上げ Jan 9, 2026 から Cape Canaveral Space Force Station

Loading…

次のパス (今後24時間)

TLE

最新Source: CelesTrak SupGP

元期: Sep 14, 2026, 21:12 UTC

1 67336C 26003C   26257.88381944  .00033522  00000+0  12143-2 0  2577
2 67336  43.0022 238.7521 0001356 252.9199 225.9794 15.27557347    13

AllMySatでSTARLINK-36480をリアルタイム追跡

Download on the App Store